This is the latest recevied weather packets stored in our database for station/object KD0OXW. If no packets are shown the sender has not sent any weather packets the latest 10 day(s).
| Time | Temp. | Humidity | Pressure | Rain* | Wind** | Luminosity | Snow |
|---|---|---|---|---|---|---|---|
| 1777394012 | 9.44° C | 64% | 1012.6 hPa | 0 mm | - | - | - |
| 1777393712 | 8.89° C | 65% | 1012.6 hPa | 0 mm | - | - | - |
| 1777393412 | 8.89° C | 68% | 1012.5 hPa | 0 mm | - | - | - |
| 1777393113 | 8.89° C | 69% | 1012.6 hPa | 0 mm | - | - | - |
| 1777392812 | 8.89° C | 66% | 1012.5 hPa | 0 mm | - | - | - |
| 1777392512 | 8.89° C | 68% | 1012.5 hPa | 0 mm | - | - | - |
| 1777392212 | 8.33° C | 69% | 1012.5 hPa | 0 mm | - | - | - |
| 1777391913 | 8.33° C | 70% | 1012.6 hPa | 0 mm | - | - | - |
| 1777391612 | 8.33° C | 69% | 1012.4 hPa | 0 mm | - | - | - |
| 1777391313 | 7.78° C | 73% | 1012.4 hPa | 0 mm | - | - | - |
| 1777391012 | 7.78° C | 73% | 1012.3 hPa | 0 mm | - | - | - |
| 1777390713 | 7.78° C | 74% | 1012.1 hPa | 0 mm | - | - | - |
| 1777390413 | 7.22° C | 74% | 1012.1 hPa | 0 mm | - | - | - |
| 1777390113 | 7.22° C | 76% | 1012.1 hPa | 0 mm | - | - | - |
| 1777389813 | 7.22° C | 76% | 1012 hPa | 0 mm | - | - | - |
| 1777389513 | 6.67° C | 77% | 1011.7 hPa | 0 mm | - | - | - |
| 1777389213 | 6.67° C | 79% | 1011.7 hPa | 0 mm | - | - | - |
| 1777388913 | 6.11° C | 79% | 1011.7 hPa | 0 mm | - | - | - |
| 1777388613 | 6.11° C | 80% | 1011.8 hPa | 0 mm | - | - | - |
| 1777388313 | 6.11° C | 81% | 1011.9 hPa | 0 mm | - | - | - |
| 1777388013 | 5.56° C | 81% | 1012 hPa | 0 mm | - | - | - |
| 1777387713 | 5.56° C | 82% | 1011.9 hPa | 0 mm | - | - | - |
| 1777387413 | 5.56° C | 83% | 1011.6 hPa | 0 mm | - | - | - |
| 1777387113 | 5.56° C | 84% | 1011.6 hPa | 0 mm | - | - | - |
| 1777386813 | 5.56° C | 84% | 1011.5 hPa | 0 mm | - | - | - |
* Rain latest hour (hover to see other rain measurements)
** Current wind speed in m/s (hover to see current wind gust speed)